Weather History for Petersburg, VA

Change the Weather History Date:

Wednesday, December 12, 2012

  Actual Average (KRIC) Record (KRIC)
Temperature  
Mean Temperature 45 °F 42 °F  
Max Temperature 48 °F 51 °F 77 °F (2007)
Min Temperature 42 °F 32 °F 6 °F (1958)
Degree Days  
Heating Degree Days 20 23  
Month to date heating degree days 260  
Since 1 July heating degree days 936  
Cooling Degree Days 0 0  
Month to date cooling degree days 0  
Year to date cooling degree days 1548  
Moisture  
Dew Point 27 °F    
Average Humidity 49    
Maximum Humidity 57    
Minimum Humidity 43    
Precipitation  
Precipitation 0.00 in 0.11 in 1.21 in (1983)
Month to date precipitation 1.33  
Year to date precipitation 41.67  
Snow  
Snow 0.00 in 0.10 in 8.00 in (1917)
Month to date snowfall 0.7  
Since 1 July snowfall 0.9  
Snow Depth -    
Sea Level Pressure  
Sea Level Pressure 30.32 in    
Wind  
Wind Speed 9 mph (NNE)    
Max Wind Speed 14 mph    
Max Gust Speed 20 mph    
Visibility 10 miles    
Events      
T = Trace of Precipitation, MM = Missing Value Source: NWS Daily Summary

Daily Weather History Graph

Daily Weather History Graph

Search for Another Location

Airport:

Trip Planner

Search our weather history database for the weather conditions in past years. The results will help you decide how hot, cold, wet, or windy it might be!

Date:

Astronomy

Dec. 12, 2012 Rise Set
Actual Time 7:14 AM EST 4:53 PM EST
Civil Twilight 6:45 AM EST 5:22 PM EST
Nautical Twilight 6:13 AM EST 5:54 PM EST
Astronomical Twilight 5:41 AM EST 6:26 PM EST
Moon 6:17 AM EST (12/12) 4:27 PM EST (12/12)
Length of Visible Light 10h 36m
Length of Day
9h 38m
Waning Crescent, 1% of the Moon is Illuminated
Dec 12
Waning Crescent
Dec 13
New
Dec 20
First Quarter
Dec 28
Full
Jan 4
Last Quarter

Hourly Weather History & Observations

Time (EST) Temp. Windchill Dew Point Humidity Pressure Visibility Wind Dir Wind Speed Gust Speed Precip Events Conditions
12:15 AM 46.4 °F 42.4 °F 28.4 °F 50% 30.21 in 10.0 mi North 8.1 mph - N/A   Overcast
12:35 AM 46.4 °F 42.9 °F 30.2 °F 53% 30.19 in 10.0 mi NNE 6.9 mph - N/A   Overcast
1:15 AM 46.4 °F 41.5 °F 30.2 °F 53% 30.22 in 10.0 mi NNE 10.4 mph - N/A   Overcast
1:35 AM 46.4 °F 41.1 °F 30.2 °F 53% 30.23 in 10.0 mi NNE 11.5 mph - N/A   Overcast
1:55 AM 46.4 °F 41.9 °F 30.2 °F 53% 30.23 in 10.0 mi North 9.2 mph - N/A   Overcast
2:15 AM 46.4 °F 42.4 °F 30.2 °F 53% 30.23 in 10.0 mi NNE 8.1 mph - N/A   Overcast
2:35 AM 46.4 °F 41.5 °F 28.4 °F 50% 30.24 in 10.0 mi NNE 10.4 mph - N/A   Overcast
2:55 AM 46.4 °F 41.9 °F 28.4 °F 50% 30.25 in 10.0 mi NNE 9.2 mph - N/A   Overcast
3:15 AM 46.4 °F 41.5 °F 28.4 °F 50% 30.25 in 10.0 mi NNE 10.4 mph - N/A   Overcast
3:35 AM 46.4 °F 41.9 °F 28.4 °F 50% 30.25 in 10.0 mi NNE 9.2 mph - N/A   Overcast
3:55 AM 44.6 °F 39.2 °F 28.4 °F 53% 30.25 in 10.0 mi North 10.4 mph - N/A   Overcast
4:15 AM 44.6 °F 39.7 °F 26.6 °F 49% 30.25 in 10.0 mi NNE 9.2 mph - N/A   Overcast
4:35 AM 44.6 °F 39.2 °F 26.6 °F 49% 30.25 in 10.0 mi NE 10.4 mph - N/A   Overcast
4:55 AM 44.6 °F 38.8 °F 26.6 °F 49% 30.26 in 10.0 mi NNE 11.5 mph - N/A   Overcast
5:15 AM 44.6 °F 40.2 °F 26.6 °F 49% 30.26 in 10.0 mi NNE 8.1 mph - N/A   Overcast
5:35 AM 44.6 °F 39.7 °F 26.6 °F 49% 30.27 in 10.0 mi NNE 9.2 mph - N/A   Overcast
5:55 AM 44.6 °F 40.7 °F 26.6 °F 49% 30.29 in 10.0 mi NNE 6.9 mph - N/A   Overcast
6:15 AM 44.6 °F 40.7 °F 26.6 °F 49% 30.30 in 10.0 mi NNE 6.9 mph - N/A   Overcast
6:35 AM 44.6 °F 39.7 °F 26.6 °F 49% 30.30 in 10.0 mi NNE 9.2 mph - N/A   Scattered Clouds
6:55 AM 44.6 °F 40.2 °F 28.4 °F 53% 30.31 in 10.0 mi NNE 8.1 mph - N/A   Scattered Clouds
7:15 AM 44.6 °F 40.7 °F 28.4 °F 53% 30.32 in 10.0 mi NNE 6.9 mph - N/A   Scattered Clouds
7:35 AM 42.8 °F 38.6 °F 28.4 °F 57% 30.32 in 10.0 mi NNE 6.9 mph - N/A   Scattered Clouds
7:55 AM 44.6 °F 40.7 °F 28.4 °F 53% 30.33 in 10.0 mi North 6.9 mph - N/A   Clear
8:15 AM 44.6 °F 40.2 °F 28.4 °F 53% 30.33 in 10.0 mi North 8.1 mph - N/A   Clear
8:35 AM 44.6 °F 39.7 °F 28.4 °F 53% 30.32 in 10.0 mi North 9.2 mph - N/A   Clear
8:55 AM 44.6 °F 39.2 °F 28.4 °F 53% 30.33 in 10.0 mi North 10.4 mph - N/A   Clear
9:15 AM 44.6 °F 39.7 °F 28.4 °F 53% 30.36 in 10.0 mi North 9.2 mph - N/A   Clear
9:35 AM 44.6 °F 39.7 °F 28.4 °F 53% 30.36 in 10.0 mi North 9.2 mph - N/A   Clear
9:55 AM 46.4 °F 41.1 °F 28.4 °F 50% 30.37 in 10.0 mi NNE 11.5 mph - N/A   Clear
10:15 AM 46.4 °F 41.1 °F 26.6 °F 46% 30.36 in 10.0 mi NNE 11.5 mph 19.6 mph N/A   Clear
10:35 AM 46.4 °F 40.4 °F 24.8 °F 43% 30.36 in 10.0 mi NNE 13.8 mph 19.6 mph N/A   Mostly Cloudy
10:55 AM 46.4 °F 41.1 °F 24.8 °F 43% 30.37 in 10.0 mi North 11.5 mph - N/A   Overcast
11:15 AM 46.4 °F 41.1 °F 24.8 °F 43% 30.37 in 10.0 mi NE 11.5 mph - N/A   Overcast
11:35 AM 46.4 °F 41.5 °F 24.8 °F 43% 30.37 in 10.0 mi NE 10.4 mph - N/A   Overcast
11:55 AM 46.4 °F 41.9 °F 26.6 °F 46% 30.36 in 10.0 mi North 9.2 mph - N/A   Overcast
12:15 PM 46.4 °F 41.9 °F 26.6 °F 46% 30.35 in 10.0 mi NNE 9.2 mph - N/A   Overcast
12:35 PM 46.4 °F 41.9 °F 26.6 °F 46% 30.35 in 10.0 mi North 9.2 mph - N/A   Overcast
12:55 PM 46.4 °F 41.5 °F 26.6 °F 46% 30.34 in 10.0 mi North 10.4 mph - N/A   Overcast
1:15 PM 46.4 °F 41.1 °F 26.6 °F 46% 30.35 in 10.0 mi NNE 11.5 mph - N/A   Overcast
1:35 PM 48.2 °F - 26.6 °F 43% 30.34 in 10.0 mi NNE 8.1 mph - N/A   Mostly Cloudy
1:55 PM 48.2 °F - 26.6 °F 43% 30.33 in 10.0 mi North 10.4 mph - N/A   Scattered Clouds
2:15 PM 48.2 °F - 26.6 °F 43% 30.33 in 10.0 mi NE 9.2 mph - N/A   Clear
2:35 PM 48.2 °F - 28.4 °F 46% 30.33 in 10.0 mi NNE 10.4 mph 16.1 mph N/A   Clear
2:55 PM 48.2 °F - 26.6 °F 43% 30.33 in 10.0 mi North 12.7 mph - N/A   Clear
3:15 PM 48.2 °F - 26.6 °F 43% 30.32 in 10.0 mi NNE 10.4 mph - N/A   Clear
3:35 PM 46.4 °F 41.9 °F 26.6 °F 46% 30.32 in 10.0 mi NNE 9.2 mph - N/A   Clear
3:55 PM 46.4 °F 41.9 °F 26.6 °F 46% 30.33 in 10.0 mi NNE 9.2 mph - N/A   Clear
4:15 PM 46.4 °F 41.5 °F 26.6 °F 46% 30.35 in 10.0 mi NNE 10.4 mph - N/A   Clear
4:35 PM 46.4 °F 42.9 °F 26.6 °F 46% 30.35 in 10.0 mi NNE 6.9 mph - N/A   Clear
4:55 PM 46.4 °F 42.9 °F 26.6 °F 46% 30.34 in 10.0 mi NNE 6.9 mph - N/A   Clear
5:15 PM 46.4 °F 42.4 °F 26.6 °F 46% 30.34 in 10.0 mi NNE 8.1 mph - N/A   Clear
5:35 PM 46.4 °F 43.5 °F 26.6 °F 46% 30.35 in 10.0 mi NNE 5.8 mph - N/A   Clear
5:55 PM 46.4 °F 42.9 °F 26.6 °F 46% 30.35 in 10.0 mi NNE 6.9 mph - N/A   Clear
6:15 PM 44.6 °F 40.2 °F 26.6 °F 49% 30.35 in 10.0 mi NNE 8.1 mph - N/A   Clear
6:35 PM 44.6 °F 40.2 °F 26.6 °F 49% 30.36 in 10.0 mi NE 8.1 mph - N/A   Clear
6:55 PM 44.6 °F 40.2 °F 26.6 °F 49% 30.38 in 10.0 mi NE 8.1 mph - N/A   Clear
7:15 PM 44.6 °F 38.8 °F 26.6 °F 49% 30.37 in 10.0 mi NE 11.5 mph - N/A   Clear
7:55 PM 44.6 °F 40.2 °F 26.6 °F 49% 30.35 in 10.0 mi NE 8.1 mph - N/A   Clear
8:15 PM 44.6 °F 39.7 °F 26.6 °F 49% 30.36 in 10.0 mi NNE 9.2 mph - N/A   Clear
8:35 PM 44.6 °F 40.7 °F 26.6 °F 49% 30.37 in 10.0 mi NNE 6.9 mph - N/A   Clear
8:55 PM 44.6 °F 40.2 °F 26.6 °F 49% 30.38 in 10.0 mi NNE 8.1 mph - N/A   Clear
9:15 PM 44.6 °F 40.7 °F 26.6 °F 49% 30.39 in 10.0 mi NNE 6.9 mph - N/A   Clear
9:35 PM 44.6 °F 40.7 °F 26.6 °F 49% 30.39 in 10.0 mi NNE 6.9 mph - N/A   Clear
9:55 PM 44.6 °F 40.2 °F 26.6 °F 49% 30.38 in 10.0 mi NNE 8.1 mph - N/A   Clear
10:15 PM 44.6 °F 39.7 °F 28.4 °F 53% 30.35 in 10.0 mi NNE 9.2 mph - N/A   Clear
10:35 PM 44.6 °F 40.7 °F 28.4 °F 53% 30.35 in 10.0 mi NE 6.9 mph - N/A   Scattered Clouds
10:55 PM 44.6 °F 40.7 °F 28.4 °F 53% 30.37 in 10.0 mi NNE 6.9 mph - N/A   Clear
11:15 PM 44.6 °F 40.2 °F 28.4 °F 53% 30.36 in 10.0 mi NNE 8.1 mph - N/A   Scattered Clouds
11:35 PM 42.8 °F 38.0 °F 28.4 °F 57% 30.35 in 10.0 mi NNE 8.1 mph - N/A   Clear
11:55 PM 42.8 °F 37.5 °F 28.4 °F 57% 30.34 in 10.0 mi North 9.2 mph - N/A   Scattered Clouds